KUIPER-00034

导读 | 豆包AI

KUIPER-00034是美国亚马逊“柯伊伯项目”星座的一颗宽带通信卫星,于2025年4月28日发射升空,部署于近地轨道。该项目计划部署超3000颗卫星,旨在为全球提供高速低延迟互联网接入,填补偏远地区网络覆盖空白,依托降低的发射成本与成熟的小型化技术,参与全球低轨卫星星座建设竞争,助力全球互联基础设施构建。

基本信息
目录编号:
63747
目录名称:
KUIPER-00034
国际标识:
2025-088Z
轨道中心:
EARTH
卫星名称:
KUIPER-00034
卫星全名:
KUIPER-00034
卫星状态:
在轨 (已飞行320 天)
发射日期:
2025-04-28 UTC
国别 :
美国 (US)
星等 :
--
轨道信息
数据来源 国际轨道数据
星历时间: 2026-03-12T01:35:18+0800
2天前
查看轨道信息
半长轴: 6998.015km
偏心率: 0.0000733
轨道倾角: 51.902°
近地点辐角 61.135°
升交点赤经 79.110°
平近点角 298.969°
近地点: 619.365km
远地点: 620.391km
周期: 97.101分钟
每日圈数: 14.829977
详细信息
使用方式:
暂无
2D轨道图
3D轨道图
轨道高度分析图
轨道倾角分析图
轨道综合分析图
查看轨道综合分析图